[[{"header":{"parameterUnit":"m.s-1","parameterCategory":1,"la1":30.2991,"la2":30.254,"lo1":-89.0895,"lo2":-89.0444,"dy":0.0017,"dx":0.0017,"nx":28,"ny":28,"refTime":"2025-04-30T21:00:00:Z","depth":0,"parameterNumber":2,"parameterNumberName":"U-component_of_WINDS"},"data":[0,0,0,0,0,0,0,0,0,0,0,0,0,0,0,0,0,0,0,0,0,0,0,0,0,0,0,0,0,0,0,0,0,0,0,0,0,0,0,0,0,0,0,0,0,0,0,0,0,0,0,0,0,0,0,0,0,0,-3.3391,-3.3392,0,-3.3451,-3.3451,-3.3452,-3.3448,-3.3447,-3.3446,-3.3445,-3.3501,-3.3504,-3.3506,0,0,0,0,0,0,0,0,0,0,0,0,0,-3.327,-3.3273,-3.3391,-3.3392,-3.3393,-3.345,-3.3451,-3.3452,-3.3448,-3.3447,-3.3446,-3.3445,-3.3501,-3.3503,-3.3506,0,0,0,0,0,0,0,0,0,0,0,0,0,-3.3325,-3.3273,-3.3391,-3.3398,-3.3399,-3.345,-3.3451,-3.3452,-3.3448,-3.3447,-3.3446,-3.3445,-3.35,-3.3503,-3.3507,-3.3554,0,0,-3.3517,-3.3519,0,0,0,0,0,0,0,0,-3.3322,-3.333,-3.3396,-3.3397,-3.3399,-3.3441,-3.3429,-3.3486,-3.3449,-3.3429,-3.3445,-3.3444,-3.3482,-3.3487,-3.3501,-3.3556,-3.3559,-3.3517,-3.3519,-3.3521,-3.3522,0,0,0,0,0,0,0,-3.3319,-3.3327,-3.3414,-3.3397,-3.3399,-3.3397,-3.3403,-3.344,-3.3462,-3.3431,-3.3431,-3.3438,-3.3482,-3.3497,-3.3502,-3.3559,-3.3517,-3.352,-3.3522,-3.3524,-3.3657,-3.3658,0,0,0,0,0,0,-3.3314,-3.3324,-3.3413,-3.3416,-3.3357,-3.34,-3.3407,-3.3428,-3.3462,-3.3466,-3.3439,-3.3438,-3.3492,-3.3498,-3.3504,-3.3561,-3.3521,-3.3524,-3.3526,-3.3656,-3.3657,-3.3659,0,0,0,0,0,0,-3.3311,-3.3322,-3.341,-3.337,-3.3381,-3.3403,-3.3427,-3.343,-3.3445,-3.3468,-3.3471,-3.3451,-3.3491,-3.3499,-3.3542,-3.3563,-3.3526,-3.3529,-3.3654,-3.3656,-3.3658,-3.3676,0,0,0,0,0,0,-3.3308,-3.3321,-3.334,-3.3371,-3.3384,-3.3448,-3.3429,-3.3432,-3.3452,-3.345,-3.348,-3.3483,-3.3491,-3.3537,-3.3545,-3.3567,-3.3531,-3.3652,-3.3655,-3.3657,-3.3674,-3.3679,-3.3683,0,0,0,0,0,-3.3304,-3.3341,-3.3341,-3.3351,-3.3408,-3.3449,-3.3457,-3.3466,-3.3453,-3.3472,-3.3487,-3.3482,-3.356,-3.3541,-3.3551,-3.3574,-3.3651,-3.3654,-3.3657,-3.3672,-3.3678,-3.3683,0,0,0,0,0,0,-3.331,-3.3345,-3.3345,-3.3394,-3.3419,-3.3449,-3.3472,-3.3472,-3.35,-3.3497,-3.3506,-3.3513,-3.3556,-3.3569,-3.3548,-3.3622,-3.3603,-3.3609,-3.3611,-3.3617,-3.3622,-3.3617,-3.3534,0,0,0,0,0,-3.3318,-3.335,-3.3379,-3.3419,-3.3432,-3.345,-3.3469,-3.3474,-3.3499,-3.3509,-3.3527,-3.3551,-3.358,-3.36,-3.3628,-3.3676,-3.3682,-3.3697,-3.3702,-3.3706,-3.371,-3.3736,-3.3743,-3.367,-3.367,-3.367,0,0,-3.3333,-3.3356,-3.3376,-3.3421,-3.3441,-3.3473,-3.3459,-3.3493,-3.3517,-3.3514,-3.3556,-3.357,-3.3597,-3.3643,-3.3664,-3.3655,-3.3732,-3.371,-3.3713,-3.3715,-3.374,-3.3747,-3.3753,-3.3672,-3.3672,-3.3671,0,0,-3.3377,-3.3398,-3.3435,-3.3456,-3.3487,-3.3499,-3.3508,-3.3538,-3.3547,-3.359,-3.3589,-3.3617,-3.3668,-3.3687,-3.3703,-3.3757,-3.3753,-3.3766,-3.3789,-3.3815,-3.3821,-3.3826,-3.3845,-3.3851,-3.377,-3.377,-3.377,0,-3.3391,-3.3441,-3.3453,-3.3488,-3.3508,-3.3509,-3.3546,-3.3565,-3.3603,-3.3616,-3.3606,-3.3671,-3.3689,-3.374,-3.3753,-3.3767,-3.3776,-3.3762,-3.3819,-3.3825,-3.383,-3.3847,-3.3854,-3.3771,-3.3771,-3.3771,-3.3771,0,-3.3457,-3.3492,-3.3517,-3.3556,-3.3579,-3.3614,-3.3631,-3.3652,-3.3656,-3.3669,-3.3712,-3.3735,-3.3768,-3.378,-3.3784,-3.3832,-3.3825,-3.3818,-3.3799,-3.3838,-3.3854,-3.3861,-3.3773,-3.3773,-3.3772,-3.3772,0,0,-3.3506,-3.3552,-3.3561,-3.3579,-3.3614,-3.3641,-3.3676,-3.3711,-3.3729,-3.3755,-3.3784,-3.3828,-3.3822,-3.3841,-3.3846,-3.3869,-3.391,-3.3859,-3.3859,-3.3867,-3.3963,-3.3969,-3.3976,-3.3908,-3.391,-3.3911,-3.3961,0,-3.3553,-3.3618,-3.363,-3.3686,-3.3718,-3.372,-3.3751,-3.3775,-3.3788,-3.3816,-3.383,-3.3862,-3.3851,-3.3862,-3.3885,-3.39,-3.3929,-3.3897,-3.3934,-3.3936,-3.3927,-3.3985,-3.3991,-3.4037,-3.3968,-3.3969,-3.397,0,-3.3617,-3.3647,-3.3707,-3.3738,-3.3752,-3.378,-3.3813,-3.384,-3.3867,-3.3875,-3.3897,-3.3901,-3.3936,-3.3918,-3.3967,-3.3945,-3.3961,-3.3971,-3.3973,-3.3976,-3.3954,-3.3989,-3.4052,-3.4059,-3.398,-3.3979,-3.3979,0,-3.3646,-3.3701,-3.3744,-3.376,-3.3798,-3.3817,-3.3833,-3.386,-3.388,-3.3908,-3.3921,-3.3953,-3.397,-3.3994,-3.4006,-3.3991,-3.4054,-3.4036,-3.4061,-3.406,-3.4073,-3.4072,-3.4139,-3.4085,-3.4085,-3.4084,-3.4084,0,-3.3697,-3.3733,-3.3758,-3.3784,-3.3825,-3.3838,-3.3878,-3.3894,-3.3917,-3.3946,-3.3949,-3.3976,-3.399,-3.4018,-3.4027,-3.4067,-3.4074,-3.4081,-3.4083,-3.408,-3.4079,-3.409,-3.4087,-3.4086,-3.4086,-3.4086,-3.4085,0,-3.3736,-3.3754,-3.3801,-3.3834,-3.3843,-3.3872,-3.3899,-3.3924,-3.3938,-3.3974,-3.3984,-3.4005,-3.4038,-3.4053,-3.4093,-3.41,-3.4144,-3.4144,-3.4136,-3.4136,-3.416,-3.4157,-3.4235,-3.4246,-3.4186,-3.4186,-3.4187,0,-3.3767,-3.3796,-3.3832,-3.3853,-3.387,-3.3903,-3.3924,-3.3938,-3.396,-3.3994,-3.4015,-3.4049,-3.4077,-3.413,-3.4148,-3.418,-3.418,-3.4205,-3.4184,-3.4181,-3.418,-3.4178,-3.418,-3.4208,-3.4209,-3.421,-3.421,0,-3.3821,-3.3829,-3.386,-3.3895,-3.3921,-3.3948,-3.3975,-3.3991,-3.401,-3.4034,-3.4069,-3.4091,-3.4134,-3.4167,-3.42,-3.4215,-3.4215,-3.4217,-3.4224,-3.4221,-3.4215,-3.4218,-3.4145,-3.4214,-3.4214,-3.4214,-3.4213,-3.4213,-3.3857,-3.3882,-3.3913,-3.3947,-3.397,-3.3995,-3.402,-3.4038,-3.4069,-3.4106,-3.4112,-3.4149,-3.4176,-3.422,-3.4237,-3.4266,-3.426,-3.427,-3.4273,-3.4275,-3.4276,-3.4211,-3.4272,-3.4272,-3.4272,-3.4272,-3.4272,0,-3.391,-3.393,-3.3962,-3.4001,-3.4028,-3.4028,-3.4058,-3.408,-3.4114,-3.414,-3.4168,-3.4209,-3.4241,-3.4263,-3.4296,-3.4315,-3.4316,-3.4323,-3.4321,-3.4325,-3.428,-3.4271,-3.4322,-3.4322,-3.4322,-3.4322,-3.4322,-3.4322,-3.3941,-3.3985,-3.3996,-3.405,-3.4069,-3.4108,-3.4125,-3.4148,-3.4169,-3.4215,-3.4243,-3.4257,-3.4281,-3.4316,-3.4346,-3.4351,-3.4362,-3.437,-3.4375,-3.4333,-3.4328,-3.4323,-3.4314,-3.4373,-3.4373,-3.4417,-3.4417,-3.4417]},{"header":{"parameterUnit":"m.s-1","parameterCategory":1,"la1":30.2991,"la2":30.254,"lo1":-89.0895,"lo2":-89.0444,"dy":0.0017,"dx":0.0017,"nx":28,"ny":28,"refTime":"2025-04-30T21:00:00:Z","depth":0,"parameterNumber":3,"parameterNumberName":"V-component_of_WINDS"},"data":[0,0,0,0,0,0,0,0,0,0,0,0,0,0,0,0,0,0,0,0,0,0,0,0,0,0,0,0,0,0,0,0,0,0,0,0,0,0,0,0,0,0,0,0,0,0,0,0,0,0,0,0,0,0,0,0,0,0,5.0436,5.0437,0,5.0458,5.0458,5.0458,5.0425,5.0424,5.0423,5.0422,5.0441,5.0443,5.0444,0,0,0,0,0,0,0,0,0,0,0,0,0,5.0365,5.0366,5.0436,5.0437,5.0437,5.0458,5.0458,5.0458,5.0425,5.0424,5.0423,5.0421,5.0441,5.0442,5.0444,0,0,0,0,0,0,0,0,0,0,0,0,0,5.0392,5.0367,5.0436,5.0423,5.0422,5.0458,5.0458,5.0458,5.0426,5.0424,5.0422,5.0421,5.044,5.0442,5.0445,5.0493,0,0,5.0452,5.0453,0,0,0,0,0,0,0,0,5.039,5.0395,5.0425,5.0424,5.0423,5.0437,5.044,5.047,5.0426,5.0424,5.0422,5.042,5.0441,5.0443,5.0451,5.0494,5.0495,5.0452,5.0453,5.0455,5.0455,0,0,0,0,0,0,0,5.0389,5.0393,5.0445,5.0425,5.0424,5.0415,5.0417,5.0445,5.0442,5.0424,5.0422,5.0425,5.044,5.0449,5.0451,5.0495,5.0452,5.0454,5.0456,5.0456,5.0579,5.0581,0,0,0,0,0,0,5.0389,5.0392,5.0444,5.0445,5.0402,5.0418,5.042,5.0434,5.0441,5.0441,5.0427,5.0423,5.0445,5.0448,5.0452,5.0508,5.0454,5.0457,5.0458,5.0578,5.058,5.0582,0,0,0,0,0,0,5.0387,5.0394,5.0443,5.0418,5.0424,5.0421,5.0437,5.0436,5.0444,5.0443,5.0442,5.0436,5.0444,5.0448,5.0483,5.0508,5.0458,5.046,5.0575,5.0578,5.0581,5.0622,0,0,0,0,0,0,5.0385,5.0393,5.0412,5.0419,5.0425,5.0475,5.0439,5.0437,5.0449,5.0445,5.0452,5.0451,5.0443,5.048,5.0486,5.0511,5.0462,5.0573,5.0577,5.058,5.0619,5.0626,5.0633,0,0,0,0,0,5.0383,5.0423,5.0413,5.042,5.0449,5.0477,5.048,5.0471,5.0451,5.0469,5.0469,5.0451,5.0506,5.0484,5.049,5.0516,5.0571,5.0576,5.058,5.0616,5.0625,5.0633,0,0,0,0,0,0,5.0418,5.0423,5.0413,5.0456,5.0467,5.0471,5.0494,5.0481,5.0496,5.0492,5.0479,5.0481,5.0519,5.0521,5.0497,5.0564,5.0535,5.054,5.056,5.0569,5.0576,5.0573,5.0464,0,0,0,0,0,5.0431,5.0454,5.0457,5.0495,5.0501,5.0497,5.0508,5.0501,5.051,5.0514,5.0516,5.0525,5.0544,5.0557,5.0575,5.062,5.062,5.0641,5.0648,5.0654,5.0658,5.0681,5.069,5.0595,5.0595,5.0595,0,0,5.0457,5.0463,5.0478,5.0502,5.0509,5.0532,5.05,5.0526,5.0543,5.0518,5.055,5.0553,5.0562,5.0602,5.062,5.0606,5.0685,5.0659,5.0664,5.0665,5.0686,5.0695,5.0703,5.0598,5.0598,5.0597,0,0,5.0516,5.0524,5.0556,5.0564,5.0575,5.0573,5.0581,5.0588,5.0588,5.0622,5.0603,5.0623,5.0656,5.0664,5.0672,5.0736,5.0719,5.0742,5.0777,5.08,5.0807,5.0814,5.0835,5.0843,5.0747,5.0747,5.0747,0,5.0547,5.0582,5.0573,5.0601,5.0611,5.0591,5.0623,5.0631,5.0647,5.0655,5.0639,5.068,5.0686,5.0727,5.0742,5.075,5.0758,5.074,5.0807,5.0814,5.0819,5.0839,5.0848,5.0749,5.0749,5.0749,5.0749,0,5.0618,5.0643,5.0667,5.0684,5.0698,5.0728,5.0723,5.0738,5.0729,5.0728,5.0762,5.0768,5.0786,5.0796,5.0788,5.0836,5.0826,5.081,5.078,5.0831,5.0849,5.0857,5.0753,5.0752,5.0751,5.0751,0,0,5.0698,5.0711,5.072,5.0727,5.074,5.0758,5.0786,5.0805,5.0817,5.083,5.0852,5.0882,5.0866,5.0876,5.0868,5.0889,5.0937,5.0869,5.0869,5.0879,5.0989,5.1,5.1009,5.0928,5.0929,5.093,5.0987,0,5.0755,5.0805,5.0799,5.0846,5.0868,5.085,5.0875,5.0885,5.0885,5.0903,5.0903,5.0924,5.0902,5.0908,5.0927,5.0927,5.0958,5.0923,5.0947,5.0948,5.0942,5.1019,5.1031,5.1084,5.0995,5.0996,5.0997,0,5.0829,5.0845,5.0895,5.0903,5.0912,5.0935,5.0951,5.0969,5.098,5.0979,5.099,5.0979,5.1007,5.0979,5.1016,5.0992,5.1002,5.1004,5.1005,5.1005,5.0974,5.1019,5.1101,5.1109,5.1009,5.1008,5.1007,0,5.088,5.0914,5.0948,5.0955,5.0966,5.0982,5.0988,5.0997,5.1008,5.1023,5.103,5.1048,5.1057,5.1071,5.1065,5.1045,5.1103,5.1074,5.1101,5.1101,5.1111,5.111,5.1195,5.1122,5.1122,5.1122,5.1121,0,5.0943,5.0974,5.0971,5.0991,5.1025,5.1018,5.1051,5.1054,5.1063,5.1083,5.1069,5.1088,5.108,5.1099,5.1094,5.1125,5.113,5.1128,5.1126,5.1128,5.1128,5.1132,5.1128,5.1124,5.1123,5.1123,5.1122,0,5.1004,5.1004,5.1039,5.1048,5.1051,5.1075,5.1082,5.1101,5.1101,5.1127,5.1132,5.1132,5.1153,5.1149,5.1172,5.1169,5.1207,5.1202,5.1203,5.1201,5.1227,5.1224,5.1315,5.1326,5.1248,5.1249,5.125,0,5.1044,5.1067,5.1079,5.1092,5.1099,5.112,5.1132,5.1127,5.114,5.1154,5.1171,5.1191,5.1206,5.1241,5.1242,5.126,5.1253,5.1284,5.1255,5.1256,5.1251,5.1249,5.125,5.1289,5.129,5.129,5.1291,0,5.1114,5.1113,5.1131,5.115,5.1166,5.118,5.1192,5.1204,5.1199,5.1215,5.1237,5.1249,5.1273,5.1292,5.1309,5.1313,5.1301,5.13,5.1307,5.1308,5.1307,5.1306,5.1216,5.1298,5.1297,5.1296,5.1296,5.1296,5.1164,5.1184,5.1195,5.1216,5.1226,5.1238,5.1256,5.1259,5.1278,5.1297,5.1293,5.1317,5.1327,5.1348,5.1355,5.1373,5.1362,5.1372,5.1374,5.1376,5.1378,5.1307,5.1377,5.1376,5.1376,5.1376,5.1376,0,5.1232,5.1239,5.1258,5.1277,5.1294,5.1283,5.1296,5.131,5.1332,5.1343,5.1359,5.1384,5.1403,5.1407,5.1425,5.1439,5.1433,5.1444,5.1441,5.1442,5.1388,5.138,5.1448,5.1447,5.1447,5.1447,5.1447,5.1447,5.1269,5.1301,5.1301,5.1338,5.1344,5.1369,5.1377,5.1388,5.1397,5.1426,5.1442,5.1445,5.1452,5.1471,5.1488,5.1488,5.1494,5.1506,5.1504,5.1453,5.1446,5.1439,5.1431,5.1508,5.1508,5.1556,5.1557,5.1557]}]]